Gunnison, CO

11:38 AM MST on February 23, 2017 (GMT -0700)
Gunnison County

Weather History for KGUC - April, 2013

Change the Weather History Date:

Tuesday, April 9, 2013

  Actual Average Record
Temperature  
Mean Temperature 29 °F -  
Max Temperature 39 °F 49 °F 66 °F (2012)
Min Temperature 19 °F 21 °F 15 °F (2001)
Degree Days  
Heating Degree Days 36    
Moisture  
Dew Point 23 °F    
Average Humidity 74    
Maximum Humidity 93    
Minimum Humidity 52    
Precipitation  
Precipitation 0.06 in - - ()
Sea Level Pressure  
Sea Level Pressure 29.65 in    
Wind  
Wind Speed 11 mph (SSE)    
Max Wind Speed 48 mph    
Max Gust Speed 88 mph    
Visibility 6 miles    
Events      
Averages and records for this station are not official NWS values.
T = Trace of Precipitation, MM = Missing Value Source: NWS Daily Summary

Daily Weather History Graph

Daily Weather History Graph

Search for Another Location

Airport or City:

Trip Planner

Search our weather history database for the weather conditions in past years. The results will help you decide how hot, cold, wet, or windy it might be!

Date:

Astronomy

Apr. 09, 2013 Rise Set
Actual Time 6:40 AM MDT 7:38 PM MDT
Civil Twilight 6:12 AM MDT 8:06 PM MDT
Nautical Twilight 5:40 AM MDT 8:38 PM MDT
Astronomical Twilight 5:07 AM MDT 9:11 PM MDT
Moon 6:03 AM MDT (4/9) 7:17 PM MDT (4/9)
Length of Visible Light 13h 53m
Length of Day
12h 58m
Waning Crescent, 0% of the Moon is Illuminated
Apr 9
Waning Crescent
Apr 10
New
Apr 18
First Quarter
Apr 25
Full
May 2
Last Quarter

Hourly Weather History & Observations

Time (MDT) Temp. Windchill Dew Point Humidity Pressure Visibility Wind Dir Wind Speed Gust Speed Precip Events Conditions
12:15 AM 39.2 °F 31.2 °F 30.2 °F 70% 29.62 in 10.0 mi WSW 13.8 mph - N/A   Mostly Cloudy
12:35 AM 37.4 °F 32.8 °F 30.2 °F 75% 29.60 in 10.0 mi SW 5.8 mph - N/A   Scattered Clouds
12:55 AM 37.4 °F 33.8 °F 30.2 °F 75% 29.61 in 10.0 mi ENE 4.6 mph - N/A   Clear
1:15 AM 37.4 °F 30.8 °F 30.2 °F 75% 29.61 in 10.0 mi ENE 9.2 mph - N/A   Clear
1:35 AM 35.6 °F 29.9 °F 28.4 °F 75% 29.59 in 10.0 mi NNW 6.9 mph - N/A   Partly Cloudy
1:55 AM 37.4 °F 33.8 °F 28.4 °F 70% 29.58 in 10.0 mi NNW 4.6 mph - N/A   Mostly Cloudy
2:15 AM 37.4 °F 34.9 °F 28.4 °F 70% 29.57 in 10.0 mi ESE 3.5 mph - N/A   Mostly Cloudy
2:35 AM 37.4 °F 32.8 °F 28.4 °F 70% 29.59 in 10.0 mi SW 5.8 mph - N/A   Mostly Cloudy
2:55 AM 35.6 °F - 28.4 °F 75% 29.56 in 10.0 mi Calm Calm - N/A   Mostly Cloudy
3:15 AM 37.4 °F 32.8 °F 28.4 °F 70% 29.58 in 10.0 mi South 5.8 mph - N/A   Overcast
3:35 AM 37.4 °F 30.3 °F 26.6 °F 65% 29.57 in 3.0 mi East 10.4 mph - N/A   Overcast
3:55 AM 35.6 °F 29.9 °F 28.4 °F 75% 29.58 in 10.0 mi ESE 6.9 mph - N/A   Overcast
4:15 AM 35.6 °F 31.7 °F 28.4 °F 75% 29.56 in 8.0 mi North 4.6 mph - N/A   Overcast
4:35 AM 35.6 °F 29.9 °F 28.4 °F 75% 29.56 in 10.0 mi NE 6.9 mph - N/A   Mostly Cloudy
4:55 AM 35.6 °F 30.7 °F 28.4 °F 75% 29.55 in 10.0 mi North 5.8 mph - N/A   Overcast
5:15 AM 33.8 °F 27.0 °F 28.4 °F 81% 29.54 in 10.0 mi NW 8.1 mph - N/A   Overcast
5:35 AM 33.8 °F 26.4 °F 28.4 °F 81% 29.53 in 10.0 mi NNW 9.2 mph - N/A   Overcast
5:55 AM 35.6 °F - 28.4 °F 75% 29.53 in 10.0 mi Calm Calm - N/A   Overcast
6:15 AM 33.8 °F - 30.2 °F 87% 29.54 in 10.0 mi Calm Calm - N/A   Overcast
6:35 AM 35.6 °F 32.8 °F 30.2 °F 81% 29.53 in 10.0 mi WNW 3.5 mph - N/A   Overcast
6:55 AM 33.8 °F 27.7 °F 30.2 °F 87% 29.52 in 3.0 mi West 6.9 mph - N/A   Overcast
7:15 AM 33.8 °F 29.6 °F 30.2 °F 87% 29.53 in 2.0 mi WNW 4.6 mph - N/A   Overcast
7:55 AM 33.8 °F 27.7 °F 30.2 °F 87% 29.56 in 0.5 mi ENE 6.9 mph - N/A   Overcast
8:15 AM 33.8 °F 18.3 °F 30.2 °F 87% 29.57 in 0.5 mi ENE 40.3 mph 87.5 mph 0.01 in   Overcast
8:35 AM 30.2 °F 12.0 °F 28.4 °F 93% 29.57 in 0.2 mi East 48.3 mph 57.5 mph 0.01 in   Overcast
9:15 AM 28.4 °F 23.3 °F 26.6 °F 93% 29.57 in 0.2 mi ESE 4.6 mph - N/A   Overcast
9:35 AM 28.4 °F 17.5 °F 26.6 °F 93% 29.57 in 0.5 mi East 13.8 mph 21.9 mph N/A   Overcast
9:55 AM 30.2 °F 19.8 °F 26.6 °F 86% 29.58 in 5.0 mi East 13.8 mph - N/A   Overcast
10:15 AM 30.2 °F 21.9 °F 24.8 °F 80% 29.58 in 1.8 mi NE 9.2 mph 23.0 mph N/A   Overcast
10:35 AM 32.0 °F 19.8 °F 24.8 °F 75% 29.57 in 7.0 mi East 20.7 mph 25.3 mph N/A   Overcast
10:55 AM 33.8 °F 22.2 °F 24.8 °F 70% 29.57 in 10.0 mi East 20.7 mph 25.3 mph 0.02 in   Overcast
11:15 AM 32.0 °F 20.8 °F 24.8 °F 75% 29.58 in 10.0 mi ESE 17.3 mph 24.2 mph 0.02 in   Overcast
11:35 AM 32.0 °F 18.6 °F 23.0 °F 69% 29.58 in 1.5 mi East 25.3 mph 31.1 mph 0.03 in   Overcast
11:55 AM 30.2 °F 16.2 °F 23.0 °F 75% 29.59 in 4.0 mi East 25.3 mph 28.8 mph 0.03 in   Mostly Cloudy
12:15 PM 30.2 °F 17.8 °F 21.2 °F 69% 29.60 in 8.0 mi East 19.6 mph 29.9 mph N/A   Mostly Cloudy
12:35 PM 32.0 °F 20.5 °F 21.2 °F 64% 29.60 in 10.0 mi East 18.4 mph 26.5 mph N/A   Overcast
12:55 PM 32.0 °F 20.5 °F 21.2 °F 64% 29.60 in 10.0 mi East 18.4 mph 27.6 mph N/A   Overcast
1:15 PM 33.8 °F 25.8 °F 21.2 °F 60% 29.60 in 10.0 mi ESE 10.4 mph - N/A   Overcast
1:35 PM 33.8 °F 27.0 °F 19.4 °F 56% 29.60 in 10.0 mi ESE 8.1 mph - N/A   Overcast
2:15 PM 35.6 °F 26.6 °F 19.4 °F 52% 29.60 in 10.0 mi East 13.8 mph 20.7 mph N/A   Overcast
2:35 PM 35.6 °F 25.9 °F 19.4 °F 52% 29.61 in 10.0 mi East 16.1 mph - N/A   Overcast
2:55 PM 35.6 °F 25.5 °F 19.4 °F 52% 29.62 in 10.0 mi ESE 17.3 mph 21.9 mph N/A   Overcast
3:35 PM 33.8 °F 22.2 °F 19.4 °F 56% 29.62 in 10.0 mi East 20.7 mph 27.6 mph N/A   Overcast
3:55 PM 35.6 °F 26.2 °F 21.2 °F 56% 29.63 in 10.0 mi ESE 15.0 mph - N/A   Overcast
4:15 PM 35.6 °F 27.5 °F 21.2 °F 56% 29.64 in 10.0 mi ESE 11.5 mph - N/A   Overcast
4:35 PM 35.6 °F 26.6 °F 21.2 °F 56% 29.65 in 10.0 mi ESE 13.8 mph - N/A   Overcast
5:15 PM 28.4 °F 17.0 °F 21.2 °F 74% 29.68 in 2.5 mi WSW 15.0 mph 19.6 mph N/A   Overcast
5:35 PM 26.6 °F 15.2 °F 21.2 °F 80% 29.70 in 1.2 mi WSW 13.8 mph 21.9 mph N/A   Overcast
5:55 PM 26.6 °F 15.2 °F 21.2 °F 80% 29.71 in 1.0 mi SW 13.8 mph - N/A   Overcast
6:15 PM 26.6 °F 15.2 °F 19.4 °F 74% 29.73 in 1.2 mi SW 13.8 mph - N/A   Overcast
6:35 PM 24.8 °F 14.6 °F 19.4 °F 80% 29.74 in 1.0 mi SSW 10.4 mph 17.3 mph N/A   Overcast
6:55 PM 24.8 °F 15.3 °F 19.4 °F 80% 29.76 in 1.0 mi SSW 9.2 mph 18.4 mph N/A   Overcast
7:15 PM 24.8 °F 16.1 °F 17.6 °F 74% 29.77 in 1.2 mi SW 8.1 mph - N/A   Overcast
7:35 PM 23.0 °F 11.1 °F 17.6 °F 80% 29.78 in 1.0 mi SW 12.7 mph 19.6 mph N/A   Overcast
7:55 PM 23.0 °F 14.7 °F 17.6 °F 80% 29.80 in 0.8 mi South 6.9 mph 17.3 mph N/A   Overcast
8:15 PM 23.0 °F 12.4 °F 17.6 °F 80% 29.81 in 1.5 mi SSW 10.4 mph 16.1 mph N/A   Overcast
8:55 PM 23.0 °F 11.7 °F 17.6 °F 80% 29.84 in 3.0 mi SSW 11.5 mph 18.4 mph N/A   Mostly Cloudy
9:15 PM 23.0 °F 11.7 °F 17.6 °F 80% 29.86 in 10.0 mi SW 11.5 mph 16.1 mph N/A   Overcast
9:35 PM 21.2 °F 11.7 °F 15.8 °F 80% 29.87 in 10.0 mi WSW 8.1 mph - N/A   Overcast
9:55 PM 21.2 °F 8.3 °F 15.8 °F 80% 29.88 in 10.0 mi SW 13.8 mph - N/A   Overcast
10:15 PM 21.2 °F 10.1 °F 15.8 °F 80% 29.89 in 5.0 mi WSW 10.4 mph - N/A   Overcast
10:35 PM 19.4 °F 6.6 °F 14.0 °F 80% 29.90 in 5.0 mi SW 12.7 mph 19.6 mph N/A   Overcast
10:55 PM 19.4 °F 8.6 °F 14.0 °F 80% 29.90 in 3.0 mi SW 9.2 mph 18.4 mph N/A   Overcast
11:15 PM 19.4 °F 7.2 °F 14.0 °F 80% 29.90 in 3.0 mi SW 11.5 mph - N/A   Overcast
11:35 PM 19.4 °F 8.6 °F 12.2 °F 74% 29.91 in 3.0 mi SSW 9.2 mph - N/A   Overcast
11:55 PM 19.4 °F 10.4 °F 12.2 °F 74% 29.91 in 4.0 mi SSW 6.9 mph - N/A   Overcast